User: anonymous   Login
Location: Unspecified
(0.0000°N, 0.0000°E)
Time: 09:38:14
(UTC+00:00)
Language:

REAKTOR HELLO WORLD - Orbit

View from above orbital plane
View from above orbital plane
View from above satellite
View from above satellite

Ground track
Ground track

The orbit data is extracted from the following two-line orbital elements,

1 43743U 18096AA  23295.86021167  .15419510  25267-5  20216-3 0  9994
2 43743  97.2858  29.3911 0011730 268.5420  91.4540 16.48838571274250
Epoch (UTC): 22 October 2023 20:38:42
Eccentricity: 0.0011730
inclination: 97.2858°
perigee height: 135 km
apogee height: 150 km
right ascension of ascending node: 29.3911°
argument of perigee: 268.5420°
revolutions per day: 16.48838571
mean anomaly at epoch: 91.4540°
orbit number at epoch: 27425

The dashed part of the orbit path shows where the satellite is in the earth's shadow,  

DLR